Flag for Brazil Weather past 2 weeks in Recife, Pernambuco, Brazil

Now
82 °F

Passing clouds.


Feels Like: 88 °F
Forecast: N/A
Wind: 5 mph from East

Location: Recife Aeroporto

Current Time: Apr 27, 2015 at 6:53:50 PM

Latest Report: Apr 27, 2015 at 6:00 PM


Visibility: N/A

Pressure: 29.89 "Hg

Humidity: 74%

Dew point: 73 °F

Location of RecifeLocation

Historic Weather in Recife — Graph

°F

Recife temperature yesterday

Maximum temperature yesterday: 88 °F (at 12:00 PM)
Minimum temperature yesterday: 75 °F (at 5:00 AM)
Average temperature yesterday: 83 °F

Past Weeks' High & Low Weather Summary

 TemperatureHumidityPressure
High88 °F (Apr 13, 10:00 AM)100% (Apr 22, 3:00 AM)29.98 "Hg (Apr 22, 3:00 AM)
Low73 °F (Apr 21, 5:00 AM)55% (Apr 27, 1:00 PM)29.83 "Hg (Apr 16, 3:00 PM)
Average82 °F76%29.91 "Hg
* Reported Apr 12 5:00 PM — Apr 27 5:00 PM, Recife, Weather by CustomWeather, © 2015

Note: Actual official high and low records may vary slightly from our data, if they occured in-between our weather recording intervals... More about our weather records

Advertising

Recife weather history for previous 24 hours

 ConditionsComfort  
Time TempWeatherWind HumidityBarometerVisibility
5:00 PM
Mon, Apr 27
84 °FScattered clouds.6 mph70%29.89 "HgN/A
4:00 PM84 °FPassing clouds.6 mph70%29.86 "HgN/A
3:00 PM86 °FPassing clouds.8 mph62%29.86 "HgN/A
2:00 PM88 °FPassing clouds.8 mph55%29.86 "HgN/A
1:00 PM88 °FScattered clouds.9 mph55%29.89 "HgN/A
12:00 PM88 °FScattered clouds.9 mph62%29.89 "HgN/A
11:00 AM86 °FScattered clouds.8 mph66%29.92 "HgN/A
10:00 AM86 °FScattered clouds.8 mph66%29.95 "HgN/A
9:00 AM84 °FScattered clouds.8 mph70%29.95 "HgN/A
8:00 AM84 °FScattered clouds.7 mph74%29.92 "HgN/A
7:00 AM82 °FScattered clouds.5 mph74%29.92 "HgN/A
6:00 AM82 °FPassing clouds.5 mph74%29.92 "HgN/A
5:00 AM81 °FPassing clouds.5 mph79%29.89 "HgN/A
4:00 AM81 °FPassing clouds.6 mph79%29.89 "HgN/A
3:00 AM82 °FPassing clouds.5 mph74%29.92 "HgN/A
2:00 AM82 °FPassing clouds.5 mph74%29.92 "HgN/A
1:00 AM82 °FPassing clouds.7 mph74%29.92 "HgN/A
12:00 AM82 °FPassing clouds.6 mph79%29.95 "HgN/A
11:00 PM
Sun, Apr 26
82 °FPassing clouds.6 mph79%29.95 "HgN/A
10:00 PM82 °FPassing clouds.5 mph79%29.95 "HgN/A
9:00 PM82 °FPassing clouds.6 mph79%29.95 "HgN/A
8:00 PM82 °FClear.5 mph79%29.95 "Hg10 mi
7:00 PM82 °FClear.5 mph74%29.92 "Hg10 mi
6:00 PM82 °FClear.5 mph74%29.92 "Hg10 mi
Weather by CustomWeather, © 2015

See weather overviewHow to use our weather pages